Regional Weather Roundup
Issued by NWS

Home | Current Version | Previous Version | Text Only | Print | Product List | Glossary On
Versions: 1 2 3 4 5 6 7 8 9 10 11 12 13 14 15 16 17 18 19 20 21 22 23 24 25 26 27 28 29 30 31 32 33 34 35 36 37 38 39 40 41 42 43 44 45 46 47 48 49 50
000
ASUS45 KSLC 060810
RWRUT

UTAH REGIONAL WEATHER ROUNDUP
NATIONAL WEATHER SERVICE SALT LAKE CITY UT
100 AM MST TUE DEC 06 2016

UTZ001>011-023>025-060900-

NORTHERN UTAH

CITY           SKY/WX    TMP DP  RH WIND       PRES   REMARKS
BRIGHAM CITY     N/A     17  11  78 CALM      30.00F
HILL AFB       PTCLDY    15  -3  45 E16       29.95F WCI  -1
LOGAN          CLEAR    N/A N/A N/A CALM      30.00F
OGDEN          PTCLDY    16   1  51 S6        29.96F WCI   7
SALT LAKE CITY MOCLDY    25  10  53 CALM      29.97F
TOOELE VALLEY  CLOUDY    27  21  80 CALM      29.98F
WENDOVER       CLEAR     16   1  53 W3        29.98S
HEBER CITY     MOCLDY    18   3  53 CALM      29.93F
WEST JORDAN    CLOUDY    26  18  71 CALM      29.97F

$$

UTZ011>015-024>027-060900-

CENTRAL/NORTHEAST UTAH

CITY           SKY/WX    TMP DP  RH WIND       PRES   REMARKS
PROVO AIRPORT  CLOUDY    27  12  53 S3        29.98F
MOAB/CANYONLAN CLEAR     28  -1  28 S3        29.92S
DELTA          PTCLDY    18   9  68 E3        29.95S
PRICE          PTCLDY    18   5  57 CALM      29.89F
RICHFIELD      PTCLDY    16  12  86 SW1       29.97S
ROOSEVELT      CLOUDY    21   5  49 W3        30.01F
VERNAL         CLOUDY    18  -6  34 NW5       29.99F WCI  11

$$

UTZ013>016-019>022-027-060900-

SOUTHERN UTAH

CITY           SKY/WX    TMP DP  RH WIND       PRES   REMARKS
BRYCE CANYON   PTCLDY    13   4  67 W10       29.87F WCI   0
CEDAR CITY     PTCLDY    21   6  52 NW5       29.89F WCI  15
MILFORD        MOCLDY    15   4  61 CALM      29.93F
ST GEORGE      MOSUNNY   39  18  41 CALM      29.91S
HANKSVILLE     CLEAR     27   7  43 N6        29.96S WCI  20
KANAB          CLOUDY    28  21  74 CALM      29.93F
BLANDING       CLOUDY    27  13  55 N9        29.95F WCI  18

$$

REGIONAL REPORTS     COLORADO/ARIZONA

CITY           SKY/WX    TMP DP  RH WIND       PRES   REMARKS
CRAIG, CO      CLOUDY    -2  -9  72 CALM      29.98F
GRAND JUNCTION CLEAR     18   7  62 CALM      29.96F
RIFLE, CO      CLOUDY    23   2  40 W5        29.96F WCI  17
MONTROSE, CO   CLEAR     19  10  68 SE9       29.98F WCI   8
CORTEZ, CO     CLOUDY    24  20  84 E5        29.90S WCI  18
COLORADO CITY    N/A     28  23  80 SE3       29.92F
PAGE, AZ       CLOUDY    41  10  28 CALM      29.85F
GRAND CANYON   MOCLDY    28  22  78 NE5       29.94F WCI  23
KINGMAN, AZ    MOCLDY    38  14  37 SE6       29.90F WCI  33
FLAGSTAFF, AZ  CLOUDY    31  19  61 W3        29.95F

$$

REGIONAL REPORTS    NEVADA/IDAHO/WYOMING

CITY           SKY/WX    TMP DP  RH WIND       PRES   REMARKS
LAS VEGAS, NV  MOCLDY    46  20  35 CALM      29.86F
ELY, NY        CLOUDY    12   8  84 S6        29.90F WCI   3
ELKO, NV       PTCLDY    19  13  77 CALM      29.91F
POCATELLO, ID  CLEAR      8   2  76 N5        29.98F WCI   0
BURLEY, ID     CLEAR      8   5  87 CALM      29.95F
FORT BRIDGER,    N/A      8 -15  34 CALM      29.92F
EVANSTON, WY   CLOUDY    -1 -16  48 CALM      29.88F
ROCK SPRINGS,  CLOUDY     3  -8  60 SW5       29.92F WCI  -6
KEMMERER, WY     N/A     -6 -13  71 NW8       29.87F WCI -21

$$



USA.gov is the U.S. government's official web portal to all federal, state and local government web resources and services.